Date String (YYYY-MM-DD hh:mm:ss) UTC,Instrument flags,absolute air pressure of the measurement (hPa),sample flow rate (lpm),inlet stack bypass flow (lpm),air temperature of the measurement (°C),ambient temperature measured by the external sensor (°C),aerosol sample conditioner tube jacket temperature (°C),OPC LED temperature (°C),internal box temperature (°C),relative humidity of the measurement (%),span deviation,mass concentration of particles derived from Lorenz-Mie calculation of OPC scattering (μg/m³),mass concentration of particles derived from Lorenz-Mie calculation of OPC scattering (μg/m³),mass concentration of particles derived from Lorenz-Mie calculation of OPC scattering (μg/m³)
DateTimeUTC,F1_M11,P_M11,Q1_M11,Q2_M11,T1_M11,T2_M11,T3_M11,T4_M11,T5_M11,U1_M11,ZSPAN_M11,X0_M11,X2_M11,X1_M11
2024-03-30 19:00:00,SystemResetWarning,0822.2,5.00,000.00,022.8,022.3,000.0,031.1,024.7,24.5,0001.0,0011.13,0007.44,0006.89
2024-03-30 19:01:00,SystemResetWarning,0822.3,5.00,000.00,022.8,022.3,000.0,031.1,024.7,24.4,0001.2,0011.61,0007.49,0006.91
2024-03-30 19:02:00,SystemResetWarning,0822.3,5.00,000.00,022.8,022.4,000.0,031.1,024.7,24.3,0001.6,0011.63,0007.53,0006.93
2024-03-30 19:03:00,SystemResetWarning,0822.2,5.00,000.00,022.9,022.4,000.0,031.1,024.7,24.8,0001.8,0011.92,0007.51,0006.94
2024-03-30 19:04:00,SystemResetWarning,0822.2,5.00,000.00,022.9,022.4,000.0,031.2,024.8,25.1,0001.6,0011.77,0007.50,0006.96
2024-03-30 19:05:00,SystemResetWarning,0822.1,5.00,000.00,022.9,022.4,000.0,031.2,024.8,24.4,0000.6,0011.43,0007.49,0006.99
2024-03-30 19:06:00,SystemResetWarning,0822.1,5.00,000.00,022.9,022.4,000.0,031.2,024.8,24.9,0000.0,0011.97,0007.48,0007.04
2024-03-30 19:07:00,SystemResetWarning,0822.1,4.99,000.00,022.9,022.4,000.0,031.2,024.8,24.7,0000.1,0012.07,0007.49,0007.08
2024-03-30 19:08:00,SystemResetWarning,0822.1,5.00,000.00,022.9,022.4,000.0,031.2,024.8,24.1,0000.4,0012.07,0007.50,0007.10
2024-03-30 19:09:00,SystemResetWarning,0822.0,5.00,000.00,022.9,022.4,000.0,031.2,024.8,24.2,0000.0,0012.54,0007.56,0007.15
2024-03-30 19:10:00,SystemResetWarning,0822.1,5.00,000.00,023.0,022.5,000.0,031.3,024.8,23.9,0000.5,0013.01,0007.61,0007.19
2024-03-30 19:11:00,SystemResetWarning,0822.1,5.00,000.00,023.0,022.5,000.0,031.3,024.8,23.9,0001.2,0013.07,0007.62,0007.22
2024-03-30 19:12:00,SystemResetWarning,0822.0,5.00,000.00,023.0,022.5,000.0,031.3,024.8,23.9,0000.9,0012.69,0007.62,0007.23
2024-03-30 19:13:00,SystemResetWarning,0822.1,5.00,000.00,023.0,022.5,000.0,031.3,024.8,23.9,0000.6,0012.62,0007.64,0007.22
2024-03-30 19:14:00,SystemResetWarning,0822.0,5.00,000.00,023.0,022.5,000.0,031.3,024.9,24.0,0000.6,0012.34,0007.67,0007.22
2024-03-30 19:15:00,SystemResetWarning,0822.1,5.00,000.00,023.0,022.5,000.0,031.3,024.9,24.2,0000.1,0012.28,0007.70,0007.24
2024-03-30 19:16:00,SystemResetWarning,0822.0,5.00,000.00,023.0,022.5,000.0,031.3,024.9,24.2,0000.1,0012.33,0007.71,0007.23
2024-03-30 19:17:00,SystemResetWarning,0822.1,5.00,000.00,023.1,022.6,000.0,031.4,024.9,25.1,0000.5,0012.09,0007.70,0007.20
2024-03-30 19:18:00,SystemResetWarning,0822.1,5.00,000.00,023.1,022.6,000.0,031.4,024.9,25.3,0001.0,0011.72,0007.68,0007.17
2024-03-30 19:19:00,SystemResetWarning,0822.0,5.00,000.00,023.1,022.6,000.0,031.4,024.9,24.7,0001.4,0011.65,0007.63,0007.12
2024-03-30 19:20:00,SystemResetWarning,0822.0,5.00,000.00,023.1,022.6,000.0,031.4,024.9,24.8,0001.5,0011.43,0007.57,0007.07
2024-03-30 19:21:00,SystemResetWarning,0822.0,5.00,000.00,023.1,022.6,000.0,031.4,024.9,25.0,0000.9,0011.13,0007.53,0007.05
2024-03-30 19:22:00,SystemResetWarning,0821.9,5.00,000.00,023.1,022.6,000.0,031.4,025.0,24.5,0000.0,0011.28,0007.50,0007.01
2024-03-30 19:23:00,SystemResetWarning,0821.9,5.00,000.00,023.1,022.6,000.0,031.4,025.0,24.0,0001.0,0011.42,0007.48,0007.00
2024-03-30 19:24:00,SystemResetWarning,0821.9,5.00,000.00,023.1,022.6,000.0,031.5,025.0,24.2,0001.9,0011.39,0007.47,0006.99
2024-03-30 19:25:00,SystemResetWarning,0822.0,5.00,000.00,023.2,022.7,000.0,031.5,025.0,24.3,0001.3,0011.54,0007.46,0006.98
2024-03-30 19:26:00,SystemResetWarning,0822.0,5.01,000.00,023.2,022.7,000.0,031.5,025.0,24.4,0001.6,0011.57,0007.43,0006.95
2024-03-30 19:27:00,SystemResetWarning,0822.0,5.01,000.00,023.2,022.7,000.0,031.5,025.0,24.3,0001.7,0012.15,0007.38,0006.92
2024-03-30 19:28:00,SystemResetWarning,0822.0,5.00,000.00,023.2,022.7,000.0,031.5,025.0,24.2,0001.4,0011.98,0007.35,0006.92
2024-03-30 19:29:00,SystemResetWarning,0822.0,5.00,000.00,023.2,022.7,000.0,031.5,025.0,24.1,0000.9,0012.22,0007.36,0006.92
2024-03-30 19:30:00,SystemResetWarning,0821.9,5.00,000.00,023.2,022.7,000.0,031.5,025.0,24.2,0001.2,0013.44,0007.38,0006.93
2024-03-30 19:31:00,SystemResetWarning,0821.9,5.00,000.00,023.2,022.7,000.0,031.6,025.0,24.1,0001.5,0013.66,0007.41,0006.95
2024-03-30 19:32:00,SystemResetWarning,0822.0,4.99,000.00,023.2,022.7,000.0,031.6,025.1,23.8,0001.5,0013.58,0007.39,0006.93
2024-03-30 19:33:00,SystemResetWarning,0822.0,5.00,000.00,023.2,022.7,000.0,031.6,025.1,23.8,0001.6,0014.10,0007.36,0006.91
2024-03-30 19:34:00,SystemResetWarning,0822.0,5.00,000.00,023.3,022.8,000.0,031.6,025.1,24.0,0000.7,0014.06,0007.36,0006.89
2024-03-30 19:35:00,SystemResetWarning,0822.0,5.01,000.00,023.3,022.8,000.0,031.6,025.1,23.8,0000.0,0013.86,0007.35,0006.88
2024-03-30 19:36:00,SystemResetWarning,0822.0,5.00,000.00,023.3,022.8,000.0,031.6,025.1,23.9,0000.0,0013.75,0007.34,0006.88
2024-03-30 19:37:00,SystemResetWarning,0821.9,5.00,000.00,023.3,022.8,000.0,031.6,025.1,23.4,0000.0,0013.73,0007.34,0006.89
2024-03-30 19:38:00,SystemResetWarning,0821.9,5.00,000.00,023.3,022.8,000.0,031.6,025.1,23.4,0000.0,0013.58,0007.39,0006.92
2024-03-30 19:39:00,SystemResetWarning,0821.8,5.00,000.00,023.3,022.8,000.0,031.7,025.1,23.8,0000.0,0013.68,0007.45,0006.95
2024-03-30 19:40:00,SystemResetWarning,0821.8,5.01,000.00,023.3,022.8,000.0,031.7,025.1,23.6,0000.0,0014.34,0007.46,0006.97
2024-03-30 19:41:00,SystemResetWarning,0821.7,5.01,000.00,023.3,022.8,000.0,031.7,025.1,24.3,0000.0,0013.32,0007.46,0006.98
2024-03-30 19:42:00,SystemResetWarning,0821.7,5.00,000.00,023.3,022.8,000.0,031.7,025.1,24.3,0000.0,0012.87,0007.49,0006.99
2024-03-30 19:43:00,SystemResetWarning,0821.7,5.00,000.00,023.3,022.8,000.0,031.7,025.1,24.3,0000.0,0013.60,0007.54,0007.00
2024-03-30 19:44:00,SystemResetWarning,0821.7,5.00,000.00,023.3,022.8,000.0,031.7,025.2,23.9,0000.0,0013.03,0007.56,0007.03
2024-03-30 19:45:00,SystemResetWarning,0821.7,4.99,000.00,023.4,022.8,000.0,031.7,025.2,23.2,0000.0,0013.51,0007.61,0007.06
2024-03-30 19:46:00,SystemResetWarning,0821.7,5.00,000.00,023.4,022.8,000.0,031.7,025.2,22.9,0000.0,0013.62,0007.63,0007.08
2024-03-30 19:47:00,SystemResetWarning,0821.7,5.00,000.00,023.4,022.8,000.0,031.7,025.2,23.3,0000.0,0013.75,0007.64,0007.08
2024-03-30 19:48:00,SystemResetWarning,0821.7,5.00,000.00,023.4,022.9,000.0,031.8,025.2,23.9,0000.0,0014.26,0007.63,0007.08
2024-03-30 19:49:00,SystemResetWarning,0821.7,5.01,000.00,023.4,022.9,000.0,031.8,025.2,23.6,0000.0,0014.09,0007.62,0007.06
2024-03-30 19:50:00,SystemResetWarning,0821.6,5.00,000.00,023.4,022.9,000.0,031.8,025.2,23.4,0000.2,0013.77,0007.61,0007.06
2024-03-30 19:51:00,SystemResetWarning,0821.7,4.99,000.00,023.4,022.9,000.0,031.8,025.3,23.5,0000.9,0013.43,0007.62,0007.05
2024-03-30 19:52:00,SystemResetWarning,0821.6,4.99,000.00,023.4,022.9,000.0,031.8,025.3,23.7,0001.1,0013.84,0007.68,0007.04
2024-03-30 19:53:00,SystemResetWarning,0821.6,4.99,000.00,023.5,022.9,000.0,031.8,025.3,23.4,0000.9,0013.93,0007.67,0007.05
2024-03-30 19:54:00,SystemResetWarning,0821.7,5.00,000.00,023.5,023.0,000.0,031.8,025.3,23.4,0000.9,0013.81,0007.66,0007.04
2024-03-30 19:55:00,SystemResetWarning,0821.6,5.00,000.00,023.5,023.0,000.0,031.8,025.3,23.6,0000.8,0013.65,0007.67,0007.04
2024-03-30 19:56:00,SystemResetWarning,0821.7,5.00,000.00,023.5,023.0,000.0,031.9,025.3,23.8,0001.0,0012.99,0007.64,0007.03
2024-03-30 19:57:00,SystemResetWarning,0821.6,5.00,000.00,023.5,023.0,000.0,031.9,025.4,23.6,0000.9,0012.79,0007.61,0007.01
2024-03-30 19:58:00,SystemResetWarning,0821.6,5.00,000.00,023.5,023.0,000.0,031.9,025.4,23.7,0000.6,0012.69,0007.57,0006.99
2024-03-30 19:59:00,SystemResetWarning,0821.6,5.00,000.00,023.5,023.0,000.0,031.9,025.4,23.5,0000.5,0012.22,0007.58,0006.97
